Location: Unspecified
(0.0000°N, 0.0000°E)
Time: 01:13:43
(UTC+00:00)

ISS - Pass Details

Date: 13 February 2019
Orbit: 403 x 411 km, 51.6° (Epoch: 16 February)

Event Time Altitude Azimuth Distance (km) Brightness Sun altitude
Rises 19:02:35 0° 334° (NNW) 2,318 0.2 -11.8°
Reaches altitude 10° 19:04:43 10° 340° (NNW) 1,462 -0.9 -12.3°
Maximum altitude 19:07:52 45° 54° (NE) 567 -3.5 -13.1°
Enters shadow 19:10:21 15° 125° (SE) 1,202 -1.8 -13.7°
